Location: Bruderhein
(53.8035°N, 112.9265°W)
Time: 01:43:55
(UTC+00:00)

N. Korean satellite - Visible Passes

Search period start: 27 November 2022 00:00
Search period end: 07 December 2022 00:00
Orbit: 422 x 454 km, 97.3° (Epoch: 26 November)

Date Brightness Start Highest point End Pass type
(mag) Time Alt. Az. Time Alt. Az. Time Alt. Az.
27 Nov 7.5 12:41:13 10° NNE 12:44:33 45° E 12:47:50 10° S visible
27 Nov 7.8 14:14:19 10° NNW 14:16:49 19° WNW 14:19:16 10° WSW visible
28 Nov 9.5 00:50:09 10° SW 00:52:37 19° W 00:55:07 10° NW visible
28 Nov 9.3 12:03:12 10° NE 12:05:40 18° E 12:08:05 10° SE visible
28 Nov 6.7 13:35:06 10° N 13:38:24 43° WNW 13:41:39 10° SW visible
29 Nov 7.6 00:10:28 10° S 00:13:44 48° W 00:17:04 10° NNW visible
29 Nov 6.7 12:56:19 10° NNE 12:59:46 68° ESE 13:03:10 10° S visible
29 Nov 8.2 14:29:58 10° NNW 14:31:50 14° WNW 14:33:41 10° W visible
30 Nov 9.8 01:06:10 10° WSW 01:07:54 13° W 01:09:41 10° WNW visible
30 Nov 8.7 12:17:58 10° NE 12:20:53 25° E 12:23:46 10° SSE visible
30 Nov 7.2 13:50:22 10° N 13:53:26 30° WNW 13:56:29 10° SW visible
01 Dec 8.4 00:25:47 10° SSW 00:28:52 32° W 00:32:00 10° NNW visible
01 Dec 10.0 11:41:07 10° ENE 11:41:47 10° E 11:42:25 10° E visible
01 Dec 6.3 13:11:22 10° NNE 13:14:48 81° WNW 13:18:13 10° SSW visible
02 Dec 8.0 12:32:44 10° NNE 12:35:56 36° E 12:39:06 10° SSE visible
02 Dec 7.6 14:05:34 10° N 14:08:18 22° WNW 14:10:59 10° WSW visible
03 Dec 9.1 00:41:08 10° SSW 00:43:54 23° W 00:46:41 10° NW visible
03 Dec 9.6 11:54:49 10° NE 11:56:49 15° E 11:58:49 10° SE visible
03 Dec 6.4 13:26:18 10° N 13:29:40 54° WNW 13:32:59 10° SSW visible
04 Dec 7.0 00:01:31 10° S 00:04:52 62° WSW 00:08:17 10° NNW visible
04 Dec 7.2 12:47:26 10° NNE 12:50:49 52° E 12:54:07 10° S visible
04 Dec 8.0 14:20:44 10° NNW 14:22:59 17° WNW 14:25:12 10° WSW visible
05 Dec 9.6 00:56:31 10° SW 00:58:47 17° W 01:01:05 10° NW visible
05 Dec 9.1 12:09:04 10° NE 12:11:42 20° E 12:14:17 10° SE visible
05 Dec 6.9 13:41:10 10° N 13:44:21 37° WNW 13:47:30 10° SW visible
06 Dec 7.9 00:16:23 10° S 00:19:37 41° W 00:22:54 10° NNW visible
06 Dec 6.4 13:02:04 10° NNE 13:05:30 79° ESE 13:08:52 10° S visible
06 Dec 8.3 14:35:59 10° NNW 14:37:29 12° WNW 14:38:59 10° W visible
